Location: Bryzozowice
(50.3667°N, 18.9667°E)
Time: 13:03:18
(UTC+00:00)

STARLINK-1087 - Pass Details

Date: 24 January 2020
Orbit: 348 x 351 km, 53.0° (Epoch: 28 February)

Event Time Altitude Azimuth Distance (km) Brightness Sun altitude
Rises 17:05:35 0° 278° (W) 2,174 8.1 -16.2°
Reaches altitude 10° 17:07:39 10° 284° (WNW) 1,329 6.6 -16.5°
Maximum altitude 17:10:32 47° 1° (N) 480 3.2 -16.9°
Enters shadow 17:10:48 45° 22° (NNE) 495 3.1 -17.0°
